Location: Bagnolo San Vito
(45.0833°N, 10.8833°E)
Time: 09:17:32
(UTC+00:00)

USA 234 - Pass Details

Date: 03 March 2021
Orbit: 1102 x 1105 km, 123.0° (Epoch: 18 April)

Event Time Altitude Azimuth Distance (km) Brightness Sun altitude
Exits shadow 19:39:58 33° 43° (NE) 1,756 4.1 -27.5°
Maximum altitude 19:43:07 73° 326° (NNW) 1,150 3.3 -28.0°
Drops below altitude 10° 19:49:38 10° 243° (WSW) 2,957 6.0 -29.1°
Sets 19:52:06 0° 242° (WSW) 3,913 6.7 -29.5°
